Location: *
(50.0228°S, 177.2688°W)
Time: 03:33:24
(UTC+00:00)

STARLINK-1065 - Pass Details

Date: 07 April 2020
Orbit: 548 x 549 km, 53.0° (Epoch: 04 June)

Event Time Altitude Azimuth Distance (km) Brightness Sun altitude
Rises 06:47:55 0° 265° (W) 2,743 9.2 -14.5°
Reaches altitude 10° 06:50:12 10° 261° (W) 1,849 7.7 -14.8°
Maximum altitude 06:54:20 56° 181° (S) 672 4.0 -15.5°
Enters shadow 06:56:30 26° 113° (ESE) 1,125 4.7 -15.9°
